Кобринское

Россия / Санкт-Петербург и Ленинградская область     59°25′34″N   30°07′18″E
темп.,
°C
ветер,
м/с
пор.,
м/с
влажн.,
%
обл.,
%
осадки,
мм/ч
давл.,
гПа
погр.,
м
1 августа, вс
вс100:00+15юз310865 0.0 1003302
03:00+14юз399883 0.0 1003265
06:00+14ю2795100 0.0 1003206
09:00+15ю259699 1.3 1002249
12:00+18юз47845 2.4 1002690
15:00+22юз374998 2.6 10011255
18:00+22зюз5115314 0.1 10011641
21:00+17зюз511865 0.5 1003737
2 августа, пн
пн200:00+15зюз31194100 0.0 1004359
03:00+13юз2995100 0.0 1005259
06:00+14юз288897 0.0 1005290
09:00+17юз3671100 0.0 1005559
12:00+21ю3456100 0.0 10041358
15:00+17ююв2583100 0.1 1003315
18:00+15ю1394100 0.7 1002158
21:00+15з1299100 1.9 100181
3 августа, вт
вт300:00+14зюз2396100 0.0 100169
03:00+13зюз2598100 0.4 1000125
06:00+12з389850 0.0 1001250
09:00+16зюз48845 0.3 1002607
12:00+20з675579 0.0 10031714
15:00+17з596076 0.1 10051542
18:00+16з5106580 0.1 10071315
21:00+14зсз410671 0.1 1008743
4 августа, ср
ср400:00+10зюз38867 0.0 1010150
03:00+12зюз2776100 0.0 1011181
06:00+11зюз26837 0.0 1013144
09:00+17зюз236218 0.1 1014513
12:00+20з224270 0.2 10151946
15:00+19зсз1245100 0.2 10151507
18:00+20с224589 0.0 10161116
21:00+14всв2268100 0.0 101613
5 августа, чт
чт500:00+12вюв127739 0.0 101713
03:00+10ю228239 0.0 101717
06:00+12ю11709 0.0 101611
09:00+17ююв245492 0.0 1016277
12:00+20ююз454797 0.0 10161067
15:00+23ююв343851 0.0 10152068
18:00+21ююв344291 0.0 10141520
21:00+17в255856 0.0 1014125